SCP
0 0 0 0 0 0 0 0 0 0 0 0 0 0 0 0 0 0 0 -0 0 0 0 0 0 0 0 0 0 0 0 0 0 0 0 0 0 0 0 0 0 0 0 0
0 0 0 0 0 0 0 0 0 0 0 -0 -0 -0 0 0 0 0 0 0 0 0 0 0 0 0 0 0 0 0 0 0 0 0 0 0 0 0 0 0 0 0 0 0
0 0 0 0 0 0 0 0 0 0 0 0 0 0 0 0 0 0 0 0 0 0 0 0 0 0 0 0 0 0 0 0 0 0 0 0 0 0 0 0 0 0 0 0
0 0 0 0 0 0 0 0 0 0 0 0 0 -0 0 0 0 0 0 0 0 0 0 0 0 0 0 0 0 0 0 0 0 0 0 0 0 0 0 0 0 0 -0 0
0 0 0 0 0 0 0 0 0 0 0 0 0 0 0 0 0 0 0 0 0 0 0 0 0 0 0 0 0 0 0 0 0 0 0 0 0 0 0 0 0 0 0 -0
0 0 0 0 0 0 0 0 0 0 0 0 0 0 0 0 0 0 0 0 0 0 0 0 0 0 0 0 0 0 0 0 0 0 0 0 0 0 0 0 0 0 -0 -0
0 0 0 0 0 0 0 0 0 0 0 0 0 0 0 0 0 0 0 0 0 0 0 0 0 0 0 0 0 0 0 0 0 0 0 0 0 0 0 0 0 0 0 -0
0 0 0 0 0 0 0 0 0 0 0 0 0 0 0 0 0 0 0 0 0 0 0 0 0 0 0 0 0 0 0 0 0 0 0 0 0 0 0 0 0 0 0 -0
0 0 0 0 0 0 0 0 0 0 0 0 0 0 0 0 0 0 0 0 0 0 0 0 0 0 0 0 0 0 0 0 0 0 0 0 0 -0 0 0 0 0 0 0
0 0 0 0 0 0 0 0 0 0 0 0 0 0 0 0 0 0 0 0 0 0 0 0 0 0 0 0 0 0 0 0 0 0 0 0 0 -0 0 0 0 0 0 0
0 0 0 0 0 0 0 0 0 0 0 0 0 0 0 0 0 0 0 0 0 0 0 0 0 0 0 0 0 0 0 0 0 0 0 0 0 0 0 0 0 0 0 0
0 0 0 0 0 -0 0 0 0 0 0 0 0 0 0 0 0 0 0 0 0 0 0 0 0 0 0 0 0 0 0 0 0 0 0 0 0 0 0 0 0 0 0 0
0 0 0 0 0 0 0 0 0 0 0 0 0 0 0 0 0 0 0 0 0 0 0 0 0 0 0 0 0 0 0 0 0 0 0 0 0 0 0 0 0 0 0 0
0 0 0 0 0 0 0 0 0 0 0 0 0 0 0 0 0 0 0 0 0 0 0 0 0 0 0 0 0 0 0 0 0 0 0 0 0 0 0 0 0 0 0 0
0 0 0 0 0 0 0 0 0 0 0 0 0 0 0 0 0 0 0 0 0 0 0 0 0 0 0 0 0 0 0 0 0 0 0 0 0 0 0 0 0 0 0 0
0 0 0 0 0 0 0 0 0 0 0 0 0 0 0 0 0 0 0 0 0 0 0 0 0 0 0 0 0 0 0 0 0 0 0 0 -0 -0 -0 0 0 0 0 0
0 0 0 0 0 0 0 0 0 0 0 0 0 0 0 0 0 0 0 0 0 0 0 0 0 0 0 0 0 0 0 0 0 0 0 0 0 -0 -0 -0 0 0 0 0
0 0 0 0 0 0 0 0 0 0 0 0 0 0 0 0 0 0 0 0 0 0 0 0 0 0 0 0 0 0 0 0 0 0 0 -0 0 0 0 0 -0 0 0 0
0 0 0 0 0 0 0 0 0 0 0 0 0 0 0 0 0 0 0 0 0 0 0 0 0 0 0 0 0 0 0 0 0 0 0 -0 -0 0 0 0 0 0 0 0
0 0 0 0 0 0 0 0 0 0 0 0 0 0 0 0 0 0 0 0 0 0 0 0 0 0 0 0 0 0 0 0 0 0 0 -0 -0 -0 -0 -0 0 0 0 -0
0 0 0 0 0 0 0 0 0 0 0 0 0 0 0 0 0 0 0 0 0 0 0 0 0 0 0 0 0 0 0 0 0 0 0 -0 -0 -0 -0 0 0 0 -0 0
0 0 0 0 0 0 0 0 0 0 0 0 0 0 0 0 0 0 0 0 0 0 0 0 0 0 0 0 0 0 0 0 0 0 0 0 0 0 0 0 0 0 0 0
0 0 0 0 0 0 0 0 0 0 0 0 0 0 0 0 0 0 0 0 0 0 0 0 0 0 0 0 0 0 0 0 0 0 0 0 0 -0 0 0 0 0 0 0
0 0 0 0 0 0 0 0 0 0 0 0 0 0 0 0 0 0 0 0 0 0 0 0 0 0 0 0 0 0 0 0 0 0 0 0 0 0 0 0 0 0 0 0
0 0 0 0 0 0 0 0 0 0 0 0 0 0 0 0 0 0 0 0 0 0 0 0 0 0 0 0 0 0 0 0 0 0 0 0 0 0 0 0 0 0 0 0
0 0 0 0 0 0 0 0 0 0 0 0 0 0 0 0 0 0 0 0 0 0 0 0 0 0 0 0 0 0 0 0 0 0 0 0 0 0 0 0 0 0 0 0
0 0 0 0 0 0 0 0 0 0 0 0 0 0 0 0 0 0 0 0 0 0 0 0 0 0 0 0 0 0 0 0 0 0 0 0 0 0 0 0 0 0 0 0
Wind_Speed_500mb
8 8 12 22 6 7 16 24 3 5 18 7 13 24 41 33 32 38 39 47 45 53 47 46 45 44 42 41 45 40 40 43 45 50 48 53 39 45 44 39 34 34 30 27
7 15 2 4 9 10 9 15 14 20 17 28 37 36 26 26 35 31 36 42 46 52 46 42 44 41 35 34 40 39 42 40 43 45 53 36 43 36 37 37 37 34 35 31
6 16 3 13 5 9 16 17 15 12 7 41 25 29 20 19 30 31 41 42 45 45 38 38 40 30 30 34 38 39 42 40 37 43 40 35 36 40 38 36 32 33 32 31
5 11 8 8 20 16 25 19 22 35 28 37 36 27 25 28 29 33 35 34 39 35 33 35 36 28 29 34 40 41 40 37 40 43 35 35 31 35 36 33 32 32 30 28
1 5 11 18 14 7 8 12 18 15 20 27 42 35 21 21 26 28 27 32 34 29 28 32 36 25 30 35 39 34 36 35 39 26 27 32 34 36 33 33 31 31 34 30
8 5 5 6 15 16 4 6 24 27 32 38 28 10 4 21 21 27 27 32 31 31 30 31 26 28 33 35 30 34 22 33 38 21 30 35 30 33 30 34 32 32 36 35
5 7 5 10 32 13 2 12 6 25 35 36 24 20 18 20 23 25 26 29 26 30 26 27 23 30 32 29 31 32 26 31 35 33 25 36 33 31 27 30 33 31 32 31
7 6 7 34 18 7 6 8 17 29 33 30 23 25 25 24 25 25 27 25 24 24 23 26 27 28 27 24 28 30 27 32 35 32 27 32 31 28 26 26 27 28 26 29
11 11 15 30 27 28 20 4 29 29 24 19 28 26 27 25 24 23 24 23 21 19 19 23 26 29 23 23 34 21 21 25 35 29 23 28 26 22 22 20 23 26 28 28
12 6 35 32 33 41 28 27 21 19 16 22 29 26 26 22 20 19 25 19 20 21 18 19 25 29 27 25 19 19 19 30 30 25 21 27 27 21 24 19 17 21 23 24
6 21 37 33 33 34 26 21 17 19 22 23 17 21 15 16 21 23 19 16 23 18 14 18 24 26 28 29 16 20 30 34 28 21 24 25 19 28 30 29 25 20 22 22
7 15 16 21 20 19 20 17 17 23 18 17 15 16 10 14 16 15 15 19 20 15 12 15 22 26 29 29 18 19 23 27 30 22 24 23 20 23 24 25 29 25 23 19
16 23 16 5 4 9 10 9 9 30 32 27 20 10 11 10 12 11 14 18 14 12 10 15 17 24 30 28 15 15 19 26 33 23 22 25 22 22 22 22 23 30 23 19
2 11 12 6 6 6 11 14 27 26 21 15 15 6 7 8 9 12 14 15 14 9 7 16 17 23 26 24 15 17 18 18 21 21 23 21 24 23 27 22 19 22 27 18
24 13 16 12 13 12 17 28 28 24 19 23 13 2 6 5 6 5 7 11 14 9 13 14 17 16 23 18 15 14 13 13 12 16 20 20 20 17 16 19 19 15 17 19
12 12 11 12 21 20 26 29 27 22 34 28 16 5 4 1 4 10 7 11 9 6 7 9 13 13 19 14 19 5 5 8 10 14 17 16 16 26 17 17 18 13 12 12
10 9 11 16 25 22 35 32 30 30 41 30 17 8 5 3 5 6 6 16 17 6 8 9 15 14 15 12 17 15 4 5 5 15 12 17 18 23 18 10 9 12 18 14
18 18 16 13 13 25 30 37 38 40 42 31 19 13 7 5 5 8 8 8 16 9 13 16 14 9 12 14 18 15 6 7 6 7 10 11 12 21 20 16 4 3 7 12
27 23 24 26 28 21 21 43 48 47 39 28 21 15 9 9 6 7 14 11 4 11 17 19 20 15 13 17 19 17 15 7 11 7 11 5 10 13 18 17 4 5 4 7
14 22 28 30 25 29 27 41 48 41 33 26 24 17 15 13 10 11 11 12 12 14 19 18 17 17 15 20 15 3 5 10 14 14 10 11 7 8 10 13 7 3 3 2
16 20 23 25 29 33 37 46 43 37 29 24 22 20 21 14 12 14 10 9 20 26 21 20 22 21 18 23 19 12 9 13 11 14 16 13 13 14 11 8 11 9 10 8
13 14 15 14 17 32 37 36 33 29 25 26 25 25 22 12 13 13 17 20 27 27 27 19 17 19 19 24 22 24 18 15 13 21 21 16 12 12 10 12 12 7 10 8
7 11 11 22 13 31 38 38 34 31 29 31 30 28 27 22 12 12 20 25 32 35 30 23 22 25 30 29 24 23 21 22 15 19 21 15 21 16 12 13 10 11 10 14
9 10 11 12 12 31 39 36 33 31 30 28 30 32 33 29 15 22 29 25 28 35 31 26 28 25 24 22 21 19 22 19 18 22 22 15 11 9 8 9 10 6 7 13
2 6 4 2 11 22 32 34 32 32 37 38 38 37 37 28 28 25 27 27 31 37 30 24 20 23 22 20 19 18 22 18 18 18 21 25 17 14 20 11 11 10 9 12
6 5 8 9 11 18 28 35 38 44 47 44 42 38 37 33 32 32 37 32 24 37 37 26 22 20 15 14 17 22 24 22 20 22 18 24 27 23 20 28 23 18 15 15
18 18 23 27 22 28 31 21 30 43 37 34 46 32 23 31 39 39 33 35 33 29 39 32 18 22 26 28 31 22 23 20 22 22 26 26 28 26 20 19 20 24 29 29
Wind_Direction_500mb
186 203 163 192 54 155 176 218 130 33 91 60 106 119 113 98 63 48 50 41 34 29 21 15 19 18 9 5 360 6 353 345 352 352 0 355 3 7 23 28 26 18 15 19
254 259 5 202 1 271 4 59 51 64 77 154 134 116 99 74 39 54 45 38 29 21 13 10 11 12 12 8 357 348 347 351 355 357 352 4 14 17 28 27 26 30 25 21
293 341 16 2 254 64 73 58 73 57 181 134 98 95 83 30 37 59 38 31 21 16 4 2 10 14 6 355 349 355 354 353 4 351 356 13 14 16 19 22 25 27 24 24
273 353 333 184 45 46 79 59 67 75 82 111 129 112 81 85 60 41 33 27 19 12 2 4 12 18 359 346 350 355 349 4 2 356 21 12 24 18 29 27 25 27 22 24
190 254 148 22 356 8 66 35 77 91 121 136 122 103 93 79 50 53 42 27 22 10 5 2 15 14 351 347 352 350 357 10 3 12 16 15 16 19 28 30 31 31 28 30
27 37 41 272 302 285 62 9 50 72 77 74 70 62 65 59 69 52 39 28 22 10 357 7 22 1 357 358 357 357 12 7 5 8 26 16 23 22 31 36 32 38 42 37
81 83 284 228 259 327 71 236 6 105 102 96 100 108 88 67 56 42 26 17 18 10 10 27 22 9 9 356 1 5 25 16 5 23 45 24 23 29 30 41 49 39 30 38
91 97 262 246 259 101 182 333 332 101 115 107 107 94 77 65 53 31 20 14 20 18 13 3 12 8 5 356 354 15 31 24 25 24 35 26 24 32 36 37 42 44 39 41
165 196 173 146 153 168 157 79 105 97 81 102 88 75 67 63 45 26 18 9 21 23 10 358 2 359 359 350 355 31 21 26 26 13 17 16 15 23 29 51 52 48 47 44
70 91 149 162 159 155 138 119 111 102 100 96 82 73 67 47 30 11 7 11 21 22 4 4 360 354 353 346 13 24 8 19 17 14 30 28 26 36 44 47 41 40 45 40
118 33 85 90 104 128 122 116 116 130 114 100 86 70 53 24 359 1 21 23 16 24 18 3 352 355 348 351 33 31 30 20 21 37 25 26 46 46 44 40 36 36 36 41
190 117 97 56 137 143 143 157 164 164 144 130 127 94 44 17 2 22 9 4 10 18 17 8 356 347 345 353 39 28 30 30 32 39 33 27 46 36 22 27 33 32 31 38
131 127 142 154 75 129 129 167 169 142 144 130 107 87 21 20 14 6 3 4 12 13 8 12 0 351 344 350 27 15 21 42 37 37 36 33 34 19 11 30 31 28 31 35
332 183 139 172 243 269 241 177 154 147 140 133 121 9 24 18 14 21 15 6 6 13 347 350 346 345 339 342 30 17 43 46 38 27 32 32 22 24 22 21 26 30 34 34
282 248 192 186 215 227 175 159 151 142 158 154 159 145 61 27 41 0 345 347 346 334 337 342 340 345 338 336 16 18 32 38 46 28 32 32 14 5 9 14 21 20 36 43
278 194 180 193 223 207 187 166 165 171 178 163 170 150 146 295 296 332 342 319 330 348 346 328 332 335 338 335 356 24 23 51 26 23 23 23 5 351 5 20 28 43 44 44
227 229 219 227 217 222 199 196 184 197 185 185 184 189 209 252 292 342 332 326 334 286 299 288 314 300 334 333 342 357 309 297 316 352 13 24 351 2 357 19 42 41 25 30
219 235 246 263 257 227 219 211 195 198 188 189 186 187 218 273 335 349 346 309 332 320 281 280 303 323 303 321 327 335 284 332 272 298 327 331 5 14 21 21 115 61 1 27
239 253 249 246 253 265 240 206 189 183 184 185 190 195 216 252 285 320 335 335 259 285 276 282 297 310 291 292 296 294 298 293 324 265 263 308 353 351 352 354 10 155 93 335
280 263 261 244 242 249 236 202 185 182 182 181 192 206 219 246 275 314 340 327 319 303 284 285 287 300 296 320 321 312 10 328 303 321 281 254 265 297 308 324 331 213 280 298
267 263 264 249 241 240 196 192 185 182 185 196 201 205 226 255 280 320 339 305 308 320 299 284 282 276 267 286 303 233 255 271 305 297 306 283 267 262 284 315 339 292 246 235
262 278 257 273 194 179 179 181 187 191 197 192 195 215 235 237 260 306 312 304 307 316 323 283 277 286 276 274 279 259 248 248 270 289 285 280 274 275 266 266 285 291 241 235
280 297 276 240 244 205 186 190 196 205 209 205 207 219 235 247 259 258 266 279 299 311 304 282 270 271 277 289 276 247 244 241 281 268 275 289 252 260 269 278 269 278 285 250
311 306 320 298 243 206 185 191 199 199 206 201 209 217 235 256 264 258 267 286 299 309 300 286 276 281 284 275 259 241 254 256 270 276 278 285 302 234 282 272 265 290 254 238
299 291 303 312 208 203 202 196 197 206 209 210 220 233 247 259 280 251 259 301 314 323 301 277 280 289 282 276 253 242 258 264 267 269 280 280 285 276 252 242 245 234 237 261
316 269 260 266 273 241 232 227 232 237 229 221 219 231 245 250 257 264 279 284 300 320 326 289 277 285 286 262 230 250 258 262 269 275 282 273 276 276 264 254 246 245 257 264
308 308 281 285 283 286 273 259 245 231 238 234 234 224 252 259 241 238 255 283 292 309 324 321 278 272 281 277 271 246 252 268 270 264 267 272 285 281 275 270 259 246 245 252
Wind_Speed_850mb
8 8 12 22 6 7 16 24 3 5 18 7 13 24 41 33 32 38 39 47 45 53 47 46 45 44 42 41 45 40 40 43 45 50 48 53 39 45 44 39 34 34 30 27
7 15 2 4 9 10 9 15 14 20 17 28 37 36 26 26 35 31 36 42 46 52 46 42 44 41 35 34 40 39 42 40 43 45 53 36 43 36 37 37 37 34 35 31
6 16 3 13 5 9 16 17 15 12 7 41 25 29 20 19 30 31 41 42 45 45 38 38 40 30 30 34 38 39 42 40 37 43 40 35 36 40 38 36 32 33 32 31
5 11 8 8 20 16 25 19 22 35 28 37 36 27 25 28 29 33 35 34 39 35 33 35 36 28 29 34 40 41 40 37 40 43 35 35 31 35 36 33 32 32 30 28
1 5 11 18 14 7 8 12 18 15 20 27 42 35 21 21 26 28 27 32 34 29 28 32 36 25 30 35 39 34 36 35 39 26 27 32 34 36 33 33 31 31 34 30
8 5 5 6 15 16 4 6 24 27 32 38 28 10 4 21 21 27 27 32 31 31 30 31 26 28 33 35 30 34 22 33 38 21 30 35 30 33 30 34 32 32 36 35
5 7 5 10 32 13 2 12 6 25 35 36 24 20 18 20 23 25 26 29 26 30 26 27 23 30 32 29 31 32 26 31 35 33 25 36 33 31 27 30 33 31 32 31
7 6 7 34 18 7 6 8 17 29 33 30 23 25 25 24 25 25 27 25 24 24 23 26 27 28 27 24 28 30 27 32 35 32 27 32 31 28 26 26 27 28 26 29
11 11 15 30 27 28 20 4 29 29 24 19 28 26 27 25 24 23 24 23 21 19 19 23 26 29 23 23 34 21 21 25 35 29 23 28 26 22 22 20 23 26 28 28
12 6 35 32 33 41 28 27 21 19 16 22 29 26 26 22 20 19 25 19 20 21 18 19 25 29 27 25 19 19 19 30 30 25 21 27 27 21 24 19 17 21 23 24
6 21 37 33 33 34 26 21 17 19 22 23 17 21 15 16 21 23 19 16 23 18 14 18 24 26 28 29 16 20 30 34 28 21 24 25 19 28 30 29 25 20 22 22
7 15 16 21 20 19 20 17 17 23 18 17 15 16 10 14 16 15 15 19 20 15 12 15 22 26 29 29 18 19 23 27 30 22 24 23 20 23 24 25 29 25 23 19
16 23 16 5 4 9 10 9 9 30 32 27 20 10 11 10 12 11 14 18 14 12 10 15 17 24 30 28 15 15 19 26 33 23 22 25 22 22 22 22 23 30 23 19
2 11 12 6 6 6 11 14 27 26 21 15 15 6 7 8 9 12 14 15 14 9 7 16 17 23 26 24 15 17 18 18 21 21 23 21 24 23 27 22 19 22 27 18
24 13 16 12 13 12 17 28 28 24 19 23 13 2 6 5 6 5 7 11 14 9 13 14 17 16 23 18 15 14 13 13 12 16 20 20 20 17 16 19 19 15 17 19
12 12 11 12 21 20 26 29 27 22 34 28 16 5 4 1 4 10 7 11 9 6 7 9 13 13 19 14 19 5 5 8 10 14 17 16 16 26 17 17 18 13 12 12
10 9 11 16 25 22 35 32 30 30 41 30 17 8 5 3 5 6 6 16 17 6 8 9 15 14 15 12 17 15 4 5 5 15 12 17 18 23 18 10 9 12 18 14
18 18 16 13 13 25 30 37 38 40 42 31 19 13 7 5 5 8 8 8 16 9 13 16 14 9 12 14 18 15 6 7 6 7 10 11 12 21 20 16 4 3 7 12
27 23 24 26 28 21 21 43 48 47 39 28 21 15 9 9 6 7 14 11 4 11 17 19 20 15 13 17 19 17 15 7 11 7 11 5 10 13 18 17 4 5 4 7
14 22 28 30 25 29 27 41 48 41 33 26 24 17 15 13 10 11 11 12 12 14 19 18 17 17 15 20 15 3 5 10 14 14 10 11 7 8 10 13 7 3 3 2
16 20 23 25 29 33 37 46 43 37 29 24 22 20 21 14 12 14 10 9 20 26 21 20 22 21 18 23 19 12 9 13 11 14 16 13 13 14 11 8 11 9 10 8
13 14 15 14 17 32 37 36 33 29 25 26 25 25 22 12 13 13 17 20 27 27 27 19 17 19 19 24 22 24 18 15 13 21 21 16 12 12 10 12 12 7 10 8
7 11 11 22 13 31 38 38 34 31 29 31 30 28 27 22 12 12 20 25 32 35 30 23 22 25 30 29 24 23 21 22 15 19 21 15 21 16 12 13 10 11 10 14
9 10 11 12 12 31 39 36 33 31 30 28 30 32 33 29 15 22 29 25 28 35 31 26 28 25 24 22 21 19 22 19 18 22 22 15 11 9 8 9 10 6 7 13
2 6 4 2 11 22 32 34 32 32 37 38 38 37 37 28 28 25 27 27 31 37 30 24 20 23 22 20 19 18 22 18 18 18 21 25 17 14 20 11 11 10 9 12
6 5 8 9 11 18 28 35 38 44 47 44 42 38 37 33 32 32 37 32 24 37 37 26 22 20 15 14 17 22 24 22 20 22 18 24 27 23 20 28 23 18 15 15
18 18 23 27 22 28 31 21 30 43 37 34 46 32 23 31 39 39 33 35 33 29 39 32 18 22 26 28 31 22 23 20 22 22 26 26 28 26 20 19 20 24 29 29
Wind_Direction_850mb
186 203 163 192 54 155 176 218 130 33 91 60 106 119 113 98 63 48 50 41 34 29 21 15 19 18 9 5 360 6 353 345 352 352 0 355 3 7 23 28 26 18 15 19
254 259 5 202 1 271 4 59 51 64 77 154 134 116 99 74 39 54 45 38 29 21 13 10 11 12 12 8 357 348 347 351 355 357 352 4 14 17 28 27 26 30 25 21
293 341 16 2 254 64 73 58 73 57 181 134 98 95 83 30 37 59 38 31 21 16 4 2 10 14 6 355 349 355 354 353 4 351 356 13 14 16 19 22 25 27 24 24
273 353 333 184 45 46 79 59 67 75 82 111 129 112 81 85 60 41 33 27 19 12 2 4 12 18 359 346 350 355 349 4 2 356 21 12 24 18 29 27 25 27 22 24
190 254 148 22 356 8 66 35 77 91 121 136 122 103 93 79 50 53 42 27 22 10 5 2 15 14 351 347 352 350 357 10 3 12 16 15 16 19 28 30 31 31 28 30
27 37 41 272 302 285 62 9 50 72 77 74 70 62 65 59 69 52 39 28 22 10 357 7 22 1 357 358 357 357 12 7 5 8 26 16 23 22 31 36 32 38 42 37
81 83 284 228 259 327 71 236 6 105 102 96 100 108 88 67 56 42 26 17 18 10 10 27 22 9 9 356 1 5 25 16 5 23 45 24 23 29 30 41 49 39 30 38
91 97 262 246 259 101 182 333 332 101 115 107 107 94 77 65 53 31 20 14 20 18 13 3 12 8 5 356 354 15 31 24 25 24 35 26 24 32 36 37 42 44 39 41
165 196 173 146 153 168 157 79 105 97 81 102 88 75 67 63 45 26 18 9 21 23 10 358 2 359 359 350 355 31 21 26 26 13 17 16 15 23 29 51 52 48 47 44
70 91 149 162 159 155 138 119 111 102 100 96 82 73 67 47 30 11 7 11 21 22 4 4 360 354 353 346 13 24 8 19 17 14 30 28 26 36 44 47 41 40 45 40
118 33 85 90 104 128 122 116 116 130 114 100 86 70 53 24 359 1 21 23 16 24 18 3 352 355 348 351 33 31 30 20 21 37 25 26 46 46 44 40 36 36 36 41
190 117 97 56 137 143 143 157 164 164 144 130 127 94 44 17 2 22 9 4 10 18 17 8 356 347 345 353 39 28 30 30 32 39 33 27 46 36 22 27 33 32 31 38
131 127 142 154 75 129 129 167 169 142 144 130 107 87 21 20 14 6 3 4 12 13 8 12 0 351 344 350 27 15 21 42 37 37 36 33 34 19 11 30 31 28 31 35
332 183 139 172 243 269 241 177 154 147 140 133 121 9 24 18 14 21 15 6 6 13 347 350 346 345 339 342 30 17 43 46 38 27 32 32 22 24 22 21 26 30 34 34
282 248 192 186 215 227 175 159 151 142 158 154 159 145 61 27 41 0 345 347 346 334 337 342 340 345 338 336 16 18 32 38 46 28 32 32 14 5 9 14 21 20 36 43
278 194 180 193 223 207 187 166 165 171 178 163 170 150 146 295 296 332 342 319 330 348 346 328 332 335 338 335 356 24 23 51 26 23 23 23 5 351 5 20 28 43 44 44
227 229 219 227 217 222 199 196 184 197 185 185 184 189 209 252 292 342 332 326 334 286 299 288 314 300 334 333 342 357 309 297 316 352 13 24 351 2 357 19 42 41 25 30
219 235 246 263 257 227 219 211 195 198 188 189 186 187 218 273 335 349 346 309 332 320 281 280 303 323 303 321 327 335 284 332 272 298 327 331 5 14 21 21 115 61 1 27
239 253 249 246 253 265 240 206 189 183 184 185 190 195 216 252 285 320 335 335 259 285 276 282 297 310 291 292 296 294 298 293 324 265 263 308 353 351 352 354 10 155 93 335
280 263 261 244 242 249 236 202 185 182 182 181 192 206 219 246 275 314 340 327 319 303 284 285 287 300 296 320 321 312 10 328 303 321 281 254 265 297 308 324 331 213 280 298
267 263 264 249 241 240 196 192 185 182 185 196 201 205 226 255 280 320 339 305 308 320 299 284 282 276 267 286 303 233 255 271 305 297 306 283 267 262 284 315 339 292 246 235
262 278 257 273 194 179 179 181 187 191 197 192 195 215 235 237 260 306 312 304 307 316 323 283 277 286 276 274 279 259 248 248 270 289 285 280 274 275 266 266 285 291 241 235
280 297 276 240 244 205 186 190 196 205 209 205 207 219 235 247 259 258 266 279 299 311 304 282 270 271 277 289 276 247 244 241 281 268 275 289 252 260 269 278 269 278 285 250
311 306 320 298 243 206 185 191 199 199 206 201 209 217 235 256 264 258 267 286 299 309 300 286 276 281 284 275 259 241 254 256 270 276 278 285 302 234 282 272 265 290 254 238
299 291 303 312 208 203 202 196 197 206 209 210 220 233 247 259 280 251 259 301 314 323 301 277 280 289 282 276 253 242 258 264 267 269 280 280 285 276 252 242 245 234 237 261
316 269 260 266 273 241 232 227 232 237 229 221 219 231 245 250 257 264 279 284 300 320 326 289 277 285 286 262 230 250 258 262 269 275 282 273 276 276 264 254 246 245 257 264
308 308 281 285 283 286 273 259 245 231 238 234 234 224 252 259 241 238 255 283 292 309 324 321 278 272 281 277 271 246 252 268 270 264 267 272 285 281 275 270 259 246 245 252